Regional Weather Roundup
Issued by NWS

Home | Current Version | Previous Version | Graphics & Text | Print | Product List | Glossary On
Versions: 1 2 3 4 5 6 7 8 9 10 11 12 13 14 15 16 17 18 19 20 21 22 23 24 25 26 27 28 29 30 31 32 33 34 35 36 37 38 39 40 41 42 43 44 45 46 47 48 49 50
000
ASUS43 KDMX 270307
RWRIA

WEATHER ROUNDUP FOR IOWA
NATIONAL WEATHER SERVICE DES MOINES IA
1000 PM CDT TUE MAY 26 2015

NOTE: "FAIR" INDICATES FEW OR NO CLOUDS BELOW 12,000 FEET WITH NO
SIGNIFICANT WEATHER AND/OR OBSTRUCTIONS TO VISIBILITY.

* - THESE STATIONS ARE NOT NWS STATIONS...THUS NOT UNDER NWS
QUALITY CONTROL.  THEY ALSO DO NOT REPORT WEATHER SUCH
AS PRECIPITATION OR FOG.

IAZ001>003-012>014-020>022-031>034-043>046-270400-
   NORTHWEST IOWA

CITY           SKY/WX    TMP DP  RH WIND       PRES   REMARKS
CARROLL *      CLOUDY    61  57  88 W6        29.87R
CHEROKEE *     CLOUDY    57  57 100 CALM      29.87R
DENISON *      CLOUDY    59  59 100 W6        29.87R
LE MARS *      MOCLDY    59  57  94 CALM      29.89R
ORANGE CITY *  PTCLDY    57  55  94 CALM      29.88R
SHELDON *      MOCLDY    59  57  94 W3        29.86R
SIOUX CITY     MOCLDY    60  56  86 SW6       29.88R
SPENCER        CLOUDY    59  56  89 CALM      29.86R
STORM LAKE *   CLOUDY    59  57  94 NW6       29.88R
$$

IAZ055>058-069>071-079>083-090>094-270400-
   SOUTHWEST IOWA

CITY           SKY/WX    TMP DP  RH WIND       PRES   REMARKS
ATLANTIC *     MOCLDY    59  59 100 SW6       29.88R
AUDUBON *      MOCLDY    61  55  82 CALM      29.88R
COUNCIL BLFS * CLEAR     61  61 100 SW5       29.89R
CRESTON *      CLEAR     59  59 100 W7        29.90R
HARLAN  *      MOCLDY    61  61 100 W7        29.91R
LAMONI         CLEAR     63  59  87 W5        29.90R
RED OAK *      CLEAR     59  59 100 S3        29.89R
SHENANDOAH *   CLEAR     63  59  88 SW6       29.91R
$$

IAZ047>049-059>061-072>074-084-270400-
   CENTRAL IOWA

CITY           SKY/WX    TMP DP  RH WIND       PRES   REMARKS
AMES           CLOUDY    63  60  90 W7        29.84R
ANKENY *       CLOUDY    63  61  94 W5        29.85R
CHARITON *     CLOUDY    63  61  94 W7        29.88R
DES MOINES     MOCLDY    63  59  87 W7        29.85R
GRINNELL*      CLEAR     61  59  94 W7        29.84R
KNOXVILLE *    PTCLDY    63  59  88 SW7       29.85R
MARSHALLTOWN   PTCLDY    60  58  92 W6        29.82R
PELLA *        MOCLDY    63  63 100 W3        29.86R
PERRY *        CLOUDY    61  59  94 W8        29.86R
$$

IAZ004>006-015-016-023>025-035-036-270400-
   NORTH CENTRAL IOWA

CITY           SKY/WX    TMP DP  RH WIND       PRES   REMARKS
ALGONA *       CLOUDY    59  59 100 NW6       29.85R
CLARION *      CLOUDY    59 N/A N/A NW9       29.84R
ESTHERVILLE    CLOUDY    57  55  93 NW5       29.85R
FORT DODGE *   CLOUDY    61  55  82 W3        29.86R
MASON CITY     MOCLDY    58  56  93 W8        29.83R
FOREST CITY *  CLOUDY    55  55 100 NW8       29.84R
IOWA FALLS *   CLOUDY    61  59  94 NW8       29.84R
$$

IAZ007>011-017>019-026>030-037>042-050>054-066-270400-
   NORTHEAST IOWA

CITY           SKY/WX    TMP DP  RH WIND       PRES   REMARKS
CEDAR RAPIDS   MOCLDY    64  63  96 S3        29.80R
CHARLES CITY * CLOUDY    61  61 100 NW5       29.81R
CLINTON *      MOCLDY    64  61  88 SW9       29.84R
DECORAH *      CLOUDY    59  59 100 CALM      29.79R
DUBUQUE        PTCLDY    61  58  90 SW3       29.81R
MONTICELLO *   CLOUDY    64  64 100 CALM      29.81R
OELWEIN *      MOCLDY    61  59  94 W3        29.82R
WATERLOO       CLOUDY    61  59  93 NW5       29.81R
$$

IAZ064-065-067-068-078-270400-
   EAST CENTRAL IOWA

CITY           SKY/WX    TMP DP  RH WIND       PRES   REMARKS
DAVENPORT      PTCLDY    66  60  81 SW9       29.82R
IOWA CITY      PTCLDY    65  63  93 SW6       29.83R
MT. PLEASANT * PTCLDY    66  61  82 SW10      29.85R
MUSCATINE *    CLOUDY    66  63  88 SW6       29.83R
QUAD CITIES    PTCLDY    65  61  87 SW5       29.82R
$$

IAZ062-063-075>077-085>089-095>099-270400-
   SOUTHEAST IOWA

CITY           SKY/WX    TMP DP  RH WIND       PRES   REMARKS
BURLINGTON     PTCLDY    66  63  90 SW7       29.85R
FAIRFIELD *    CLEAR     66  61  82 SW12      29.85R
FORT MADISON * CLEAR     64  63  94 S6        29.87R
KEOKUK *       CLEAR     66  61  82 SW5       29.86R
OSKALOOSA *      N/A     63  57  82 W10       29.86R
CENTERVILLE *  CLEAR     63  63 100 SW6       29.90R
OTTUMWA        CLEAR     63  61  93 W9        29.85R
WASHINGTON *   PTCLDY    64  63  94 SW8       29.85R
$$

ABBREVIATIONS USED IN REMARKS
   TC - TEMPERATURES IN CELSIUS
  WCI - WIND CHILL INDEX
   HX - HEAT INDEX
  VSB - VISIBILITY
$$




USA.gov is the U.S. government's official web portal to all federal, state and local government web resources and services.